Weather Service Report


341 
ASUS45 KTFX 271210
RWRMT 
MONTANA REGIONAL WEATHER ROUNDUP
NATIONAL WEATHER SERVICE GREAT FALLS MT
600 AM MDT SAT AUG 27 2016

NOTE: "FAIR" INDICATES FEW OR NO CLOUDS BELOW 12000 FEET WITH NO
SIGNIFICANT WEATHER AND/OR OBSTRUCTIONS TO VISIBILITY.

MTZ001>007-043-271300-
WEST OF THE DIVIDE
  
CITY           SKY/WX    TMP DP  RH WIND       PRES   REMARKS
KALISPELL      CLOUDY    55  49  80 N9        29.82S                  
MISSOULA       MOCLDY    55  40  56 SE3       29.92S                  
BUTTE          CLOUDY    39  28  64 SE6       30.03S                  
MULLAN PASS    PTCLDY    55  34  45 SW8       29.98F                  
DEER LODGE       N/A     50  34  53 CALM      29.99S                  
EUREKA           N/A     66  41  39 SE12      29.76F                  
HAMILTON         N/A     57  32  38 S14       29.92F                  
LIBBY            N/A     54  43  66 CALM      29.79F                  
PLAINS           N/A     51  42  71 CALM      29.86                   
RONAN            N/A     58  44  59 CALM      29.90S                  
$$

MTZ008-052>055-271300-
SOUTHWEST MONTANA
  
CITY           SKY/WX    TMP DP  RH WIND       PRES   REMARKS
BOZEMAN        PTCLDY    44  36  73 SE3       29.98S                  
DILLON         PTCLDY    47  30  51 S10       30.01R                  
W YELLOWSTONE  CLOUDY    30  25  80 CALM      30.13S                  
ENNIS          CLEAR     43  28  56 NW3       30.07S                  
THREE FORKS      N/A     40  40 100 CALM      29.97S                  
$$

MTZ009-010-012-014-046-048-049-054-271300-
EAST SLOPES AND CENTRAL MONTANA
  
CITY           SKY/WX    TMP DP  RH WIND       PRES   REMARKS
CUT BANK       CLOUDY    61  39  44 SW8       29.79F                  
GREAT FALLS    CLOUDY    60  35  39 S12       29.84F                  
MALMSTROM AFB  MOCLDY    59  38  46 SW9       29.83F                  
HELENA         CLOUDY    54  38  54 CALM      29.93R                  
CHOTEAU          N/A     61  39  44 W6        29.85S                  
CONRAD           N/A     55  48  77 S2        29.85S                  
$$

MTZ011-013-016-021-045-047-050-051-271300-
NORTH CENTRAL MONTANA
  
CITY           SKY/WX    TMP DP  RH WIND       PRES   REMARKS
HAVRE          PTCLDY    45  42  89 SW3       29.79S                  
LEWISTOWN      PTCLDY    46  38  73 E7        29.89F                  
N BAR RANCH      N/A     48  37  66 NW8       29.93F                  
CHINOOK          N/A     50  45  81 E7        29.79F                  
$$

MTZ017>020-022>027-061-062-271300-
NORTHEAST MONTANA
  
CITY           SKY/WX    TMP DP  RH WIND       PRES   REMARKS
GLASGOW        CLEAR     46  42  86 E8        29.87F                  
JORDAN           N/A     39  37  92 CALM      29.89S                  
SIDNEY         CLEAR     42  39  89 CALM      29.92R                  
WOLF POINT     CLEAR     43  39  86 E3        29.91S                  
POPLAR           N/A     41  39  93 N3        29.91S                  
SCOBEY           N/A     36  32  85 CALM      29.89                   
$$

MTZ028>42-056>058-271300-
SOUTHCENTRAL AND SOUTHEAST MONTANA
  
CITY           SKY/WX    TMP DP  RH WIND       PRES   REMARKS
BAKER          CLEAR     44  42  93 SE5       29.96S                  
BILLINGS       CLOUDY    49  41  74 SW8       29.93S                  
LIVINGSTON     PTCLDY    41  35  79 SW3       29.97S                  
MILES CITY     CLEAR     49  43  80 SE6       29.91F                  
FORSYTH          N/A     50  48  93 E3        29.90F                  
LAUREL           N/A     46  38  74 CALM      29.93F                  
ROUNDUP          N/A     46  38  74 S10       29.84S                  
$$

REGIONAL REPORTS...DAKOTAS
  
CITY           SKY/WX    TMP DP  RH WIND       PRES   REMARKS
WILLISTON      CLEAR     45  41  86 CALM      29.92R                  
MINOT          MOCLDY    56  52  86 CALM      29.89S                  
DICKINSON      MOCLDY    50  46  86 S7        29.91F                  
CROSBY           N/A     43  43 100 S5        29.93R                  
WATFORD CITY     N/A     46  46 100 CALM      29.93R                  
BISMARCK       CLEAR     48  48 100 CALM      29.93S                  
GRAND FORKS    TSTM      60  57  89 S12       29.96R FOG              
FARGO          CLOUDY    61  59  93 SE8       29.98S                  
BUFFALO SD       N/A     45  45 100 NW5       29.91S                  
RAPID CITY     LGT RAIN  53  51  93 E6        30.00S                  
$$

REGIONAL REPORTS...WYOMING/IDAHO/WASHINGTON
  
CITY           SKY/WX    TMP DP  RH WIND       PRES   REMARKS
GILLETTE       CLOUDY    51  49  92 S12       29.99R                  
SHERIDAN       CLEAR     46  43  89 CALM      29.97S                  
BUFFALO WY     CLEAR     51  38  60 S7        30.01S                  
CODY           CLOUDY    48  37  66 S6        30.01S                  
YELLOWSTONE LA   N/A     32  28  85 NW3       30.19R                  
IDAHO FALLS    CLEAR     49  32  52 SW8       30.04R                  
SALMON         PTCLDY    43  36  75 CALM      30.02R                  
BOISE          CLEAR     61  33  35 SE9       29.91S                  
SPOKANE        MOCLDY    67  38  34 S9        29.77F                  
$$

REGIONAL REPORTS...ALBERTA
  
CITY           SKY/WX    TMP DP  RH WIND       PRES   REMARKS
EDMONTON       PTCLDY    57  50  77 S7        29.58F                  
CALGARY        PTCLDY    54  48  82 S6        29.66F                  
LETHBRIDGE     PTCLDY    59  45  58 SW12      29.70F                  
MEDICINE HAT   MOCLDY    61  45  55 S14G20    29.68F                  
WATERTON GATE    N/A     61  39  44 SW10        N/A                   
MILK RIVER       N/A     52  41  66 S9          N/A                   
$$

REGIONAL REPORTS...SASKATCHEWAN
  
CITY           SKY/WX    TMP DP  RH WIND       PRES   REMARKS
SWIFT CURRENT  CLEAR     46  43  87 S14G62    29.80F                  
REGINA         PTCLDY    41  41 100 SE7       29.87S                  
SASKATOON      PTCLDY    46  46 100 S5        29.82F                  
CYPRESS HILLS    N/A     48  41  76 S6          N/A                   
VAL MARIE        N/A     36  34  93 E2          N/A                   
ROCKGLEN         N/A     43  41  93 S8          N/A                   
$$
  

Return to Home page


Western Regional Climate Center, wrcc@dri.edu